Location: Unspecified
(49.9820°N, 20.4363°E)
Time: 19:49:48
(UTC+02:00)

ISS - Visible Passes

Search period start: 23 July 2024 00:00
Search period end: 02 August 2024 00:00
Orbit: 409 x 423 km, 51.6° (Epoch: 23 July)

Date Brightness Start Highest point End Pass type
(mag) Time Alt. Az. Time Alt. Az. Time Alt. Az.
23 Jul -2.5 22:16:03 10° W 22:18:55 27° SW 22:20:11 21° S visible
24 Jul -3.0 21:27:20 10° W 21:30:27 40° SSW 21:33:16 12° SE visible
25 Jul -1.5 22:16:26 10° WSW 22:18:05 13° SW 22:19:14 12° SSW visible
26 Jul -1.9 21:27:09 10° W 21:29:39 20° SW 21:32:08 10° S visible
